Year,Month,Day,Hour,Minute,Value (Times are PST for temperature in C)
2018,04,26,00,00,13.40
2018,04,26,00,01,13.40
2018,04,26,00,02,13.40
2018,04,26,00,03,13.40
2018,04,26,00,04,13.40
2018,04,26,00,05,13.40
2018,04,26,00,06,13.40
2018,04,26,00,07,13.50
2018,04,26,00,08,13.60
2018,04,26,00,09,13.60
2018,04,26,00,10,13.70
2018,04,26,00,11,13.70
2018,04,26,00,12,13.80
2018,04,26,00,13,13.80
2018,04,26,00,14,13.80
2018,04,26,00,15,13.80
2018,04,26,00,16,13.80
2018,04,26,00,17,13.80
2018,04,26,00,18,13.90
2018,04,26,00,19,13.90
2018,04,26,00,20,14.00
2018,04,26,00,21,14.00
2018,04,26,00,22,14.10
2018,04,26,00,23,14.20
2018,04,26,00,24,14.20
2018,04,26,00,25,14.20
2018,04,26,00,26,14.20
2018,04,26,00,27,14.30
2018,04,26,00,28,14.30
2018,04,26,00,29,14.30
2018,04,26,00,30,14.30
2018,04,26,00,31,14.30
2018,04,26,00,32,14.30
2018,04,26,00,33,14.40
2018,04,26,00,34,14.40
2018,04,26,00,35,14.40
2018,04,26,00,36,14.40
2018,04,26,00,37,14.40
2018,04,26,00,38,14.40
2018,04,26,00,39,14.40
2018,04,26,00,40,14.40
2018,04,26,00,41,14.40
2018,04,26,00,42,14.40
2018,04,26,00,43,14.40
2018,04,26,00,44,14.40
2018,04,26,00,45,14.40
2018,04,26,00,46,14.40
2018,04,26,00,47,14.40
2018,04,26,00,48,14.30
2018,04,26,00,49,14.30
2018,04,26,00,50,14.40
2018,04,26,00,51,14.40
2018,04,26,00,52,14.40
2018,04,26,00,53,14.40
2018,04,26,00,54,14.40
2018,04,26,00,55,14.40
2018,04,26,00,56,14.40
2018,04,26,00,57,14.40
2018,04,26,00,58,14.40
2018,04,26,00,59,14.40
2018,04,26,01,00,14.40
2018,04,26,01,01,14.30
2018,04,26,01,02,14.30
2018,04,26,01,03,14.20
2018,04,26,01,04,14.20
2018,04,26,01,05,14.10
2018,04,26,01,06,14.10
2018,04,26,01,07,14.00
2018,04,26,01,08,13.90
2018,04,26,01,09,13.90
2018,04,26,01,10,13.80
2018,04,26,01,11,13.70
2018,04,26,01,12,13.70
2018,04,26,01,13,13.60
2018,04,26,01,14,13.60
2018,04,26,01,15,13.50
2018,04,26,01,16,13.50
2018,04,26,01,17,13.40
2018,04,26,01,18,13.40
2018,04,26,01,19,13.30
2018,04,26,01,20,13.30
2018,04,26,01,21,13.20
2018,04,26,01,22,13.30
2018,04,26,01,23,13.30
2018,04,26,01,24,13.30
2018,04,26,01,25,13.30
2018,04,26,01,26,13.30
2018,04,26,01,27,13.40
2018,04,26,01,28,13.40
2018,04,26,01,29,13.40
2018,04,26,01,30,13.40
2018,04,26,01,31,13.40
2018,04,26,01,32,13.40
2018,04,26,01,33,13.40
2018,04,26,01,34,13.40
2018,04,26,01,35,13.50
2018,04,26,01,36,13.50
2018,04,26,01,37,13.60
2018,04,26,01,38,13.60
2018,04,26,01,39,13.60
2018,04,26,01,40,13.60
2018,04,26,01,41,13.60
2018,04,26,01,42,13.60
2018,04,26,01,43,13.50
2018,04,26,01,44,13.50
2018,04,26,01,45,13.50
2018,04,26,01,46,13.40
2018,04,26,01,47,13.40
2018,04,26,01,48,13.40
2018,04,26,01,49,13.40
2018,04,26,01,50,13.40
2018,04,26,01,51,13.40
2018,04,26,01,52,13.40
2018,04,26,01,53,13.40
2018,04,26,01,54,13.40
2018,04,26,01,55,13.30
2018,04,26,01,56,13.30
2018,04,26,01,57,13.30
2018,04,26,01,58,13.20
2018,04,26,01,59,13.20
2018,04,26,02,00,13.20
2018,04,26,02,01,13.20
2018,04,26,02,02,13.20
2018,04,26,02,03,13.20
2018,04,26,02,04,13.20
2018,04,26,02,05,13.20
2018,04,26,02,06,13.20
2018,04,26,02,07,13.20
2018,04,26,02,08,13.20
2018,04,26,02,09,13.20
2018,04,26,02,10,13.20
2018,04,26,02,11,13.20
2018,04,26,02,12,13.20
2018,04,26,02,13,13.20
2018,04,26,02,14,13.20
2018,04,26,02,15,13.20
2018,04,26,02,16,13.20
2018,04,26,02,17,13.20
2018,04,26,02,18,13.20
2018,04,26,02,19,13.10
2018,04,26,02,20,13.10
2018,04,26,02,21,13.10
2018,04,26,02,22,13.10
2018,04,26,02,23,13.10
2018,04,26,02,24,13.10
2018,04,26,02,25,13.10
2018,04,26,02,26,13.10
2018,04,26,02,27,13.00
2018,04,26,02,28,13.00
2018,04,26,02,29,12.90
2018,04,26,02,30,12.80
2018,04,26,02,31,12.80
2018,04,26,02,32,12.90
2018,04,26,02,33,12.90
2018,04,26,02,34,12.90
2018,04,26,02,35,12.90
2018,04,26,02,36,12.90
2018,04,26,02,37,12.90
2018,04,26,02,38,12.90
2018,04,26,02,39,13.00
2018,04,26,02,40,13.00
2018,04,26,02,41,13.00
2018,04,26,02,42,13.00
2018,04,26,02,43,13.00
2018,04,26,02,44,13.00
2018,04,26,02,45,13.00
2018,04,26,02,46,13.00
2018,04,26,02,47,13.00
2018,04,26,02,48,13.00
2018,04,26,02,49,13.00
2018,04,26,02,50,13.00
2018,04,26,02,51,13.00
2018,04,26,02,52,12.90
2018,04,26,02,53,12.90
2018,04,26,02,54,12.90
2018,04,26,02,55,12.90
2018,04,26,02,56,13.00
2018,04,26,02,57,13.00
2018,04,26,02,58,12.90
2018,04,26,02,59,12.90
2018,04,26,03,00,12.90
2018,04,26,03,01,12.80
2018,04,26,03,02,12.80
2018,04,26,03,03,12.80
2018,04,26,03,04,12.70
2018,04,26,03,05,12.70
2018,04,26,03,06,12.70
2018,04,26,03,07,12.70
2018,04,26,03,08,12.70
2018,04,26,03,09,12.70
2018,04,26,03,10,12.70
2018,04,26,03,11,12.70
2018,04,26,03,12,12.70
2018,04,26,03,13,12.80
2018,04,26,03,14,12.80
2018,04,26,03,15,12.80
2018,04,26,03,16,12.80
2018,04,26,03,17,12.80
2018,04,26,03,18,12.80
2018,04,26,03,19,12.80
2018,04,26,03,20,12.80
2018,04,26,03,21,12.80
2018,04,26,03,22,12.80
2018,04,26,03,23,12.70
2018,04,26,03,24,12.70
2018,04,26,03,25,12.70
2018,04,26,03,26,12.70
2018,04,26,03,27,12.70
2018,04,26,03,28,12.70
2018,04,26,03,29,12.70
2018,04,26,03,30,12.60
2018,04,26,03,31,12.60
2018,04,26,03,32,12.60
2018,04,26,03,33,12.60
2018,04,26,03,34,12.60
2018,04,26,03,35,12.60
2018,04,26,03,36,12.60
2018,04,26,03,37,12.60
2018,04,26,03,38,12.60
2018,04,26,03,39,12.60
2018,04,26,03,40,12.60
2018,04,26,03,41,12.60
2018,04,26,03,42,12.60
2018,04,26,03,43,12.60
2018,04,26,03,44,12.60
2018,04,26,03,45,12.60
2018,04,26,03,46,12.60
2018,04,26,03,47,12.60
2018,04,26,03,48,12.60
2018,04,26,03,49,12.70
2018,04,26,03,50,12.60
2018,04,26,03,51,12.60
2018,04,26,03,52,12.60
2018,04,26,03,53,12.60
2018,04,26,03,54,12.50
2018,04,26,03,55,12.50
2018,04,26,03,56,12.40
2018,04,26,03,57,12.40
2018,04,26,03,58,12.30
2018,04,26,03,59,12.30
2018,04,26,04,00,12.30
2018,04,26,04,01,12.30
2018,04,26,04,02,12.40
2018,04,26,04,03,12.40
2018,04,26,04,04,12.40
2018,04,26,04,05,12.30
2018,04,26,04,06,12.30
2018,04,26,04,07,12.30
2018,04,26,04,08,12.20
2018,04,26,04,09,12.20
2018,04,26,04,10,12.20
2018,04,26,04,11,12.20
2018,04,26,04,12,12.30
2018,04,26,04,13,12.30
2018,04,26,04,14,12.30
2018,04,26,04,15,12.30
2018,04,26,04,16,12.40
2018,04,26,04,17,12.30
2018,04,26,04,18,12.40
2018,04,26,04,19,12.40
2018,04,26,04,20,12.40
2018,04,26,04,21,12.40
2018,04,26,04,22,12.40
2018,04,26,04,23,12.40
2018,04,26,04,24,12.40
2018,04,26,04,25,12.40
2018,04,26,04,26,12.40
2018,04,26,04,27,12.40
2018,04,26,04,28,12.40
2018,04,26,04,29,12.40
2018,04,26,04,30,12.40
2018,04,26,04,31,12.40
2018,04,26,04,32,12.40
2018,04,26,04,33,12.30
2018,04,26,04,34,12.30
2018,04,26,04,35,12.30
2018,04,26,04,36,12.30
2018,04,26,04,37,12.20
2018,04,26,04,38,12.20
2018,04,26,04,39,12.20
2018,04,26,04,40,12.20
2018,04,26,04,41,12.10
2018,04,26,04,42,12.10
2018,04,26,04,43,12.00
2018,04,26,04,44,12.00
2018,04,26,04,45,12.00
2018,04,26,04,46,12.00
2018,04,26,04,47,11.90
2018,04,26,04,48,11.90
2018,04,26,04,49,11.90
2018,04,26,04,50,11.90
2018,04,26,04,51,11.90
2018,04,26,04,52,11.90
2018,04,26,04,53,11.90
2018,04,26,04,54,11.90
2018,04,26,04,55,11.90
2018,04,26,04,56,11.90
2018,04,26,04,57,11.90
2018,04,26,04,58,11.90
2018,04,26,04,59,11.90
2018,04,26,05,00,11.90
2018,04,26,05,01,12.00
2018,04,26,05,02,12.10
2018,04,26,05,03,12.10
2018,04,26,05,04,12.20
2018,04,26,05,05,12.20
2018,04,26,05,06,12.20
2018,04,26,05,07,12.20
2018,04,26,05,08,12.20
2018,04,26,05,09,12.20
2018,04,26,05,10,12.10
2018,04,26,05,11,12.10
2018,04,26,05,12,12.10
2018,04,26,05,13,12.00
2018,04,26,05,14,12.00
2018,04,26,05,15,12.00
2018,04,26,05,16,12.00
2018,04,26,05,17,12.00
2018,04,26,05,18,12.00
2018,04,26,05,19,12.00
2018,04,26,05,20,12.10
2018,04,26,05,21,12.20
2018,04,26,05,22,12.20
2018,04,26,05,23,12.20
2018,04,26,05,24,12.30
2018,04,26,05,25,12.40
2018,04,26,05,26,12.50
2018,04,26,05,27,12.60
2018,04,26,05,28,12.70
2018,04,26,05,29,12.70
2018,04,26,05,30,12.80
2018,04,26,05,31,12.80
2018,04,26,05,32,12.80
2018,04,26,05,33,12.90
2018,04,26,05,34,12.90
2018,04,26,05,35,12.90
2018,04,26,05,36,12.90
2018,04,26,05,37,12.90
2018,04,26,05,38,13.00
2018,04,26,05,39,13.00
2018,04,26,05,40,13.00
2018,04,26,05,41,13.00
2018,04,26,05,42,13.00
2018,04,26,05,43,13.00
2018,04,26,05,44,13.00
2018,04,26,05,45,12.90
2018,04,26,05,46,12.90
2018,04,26,05,47,12.90
2018,04,26,05,48,12.80
2018,04,26,05,49,12.70
2018,04,26,05,50,12.70
2018,04,26,05,51,12.70
2018,04,26,05,52,12.60
2018,04,26,05,53,12.60
2018,04,26,05,54,12.60
2018,04,26,05,55,12.60
2018,04,26,05,56,12.60
2018,04,26,05,57,12.50
2018,04,26,05,58,12.50
2018,04,26,05,59,12.60
2018,04,26,06,00,12.60
2018,04,26,06,01,12.60
2018,04,26,06,02,12.50
2018,04,26,06,03,12.50
2018,04,26,06,04,12.50
2018,04,26,06,05,12.40
2018,04,26,06,06,12.30
2018,04,26,06,07,12.20
2018,04,26,06,08,12.10
2018,04,26,06,09,12.00
2018,04,26,06,10,12.00
2018,04,26,06,11,12.00
2018,04,26,06,12,11.90
2018,04,26,06,13,11.80
2018,04,26,06,14,11.80
2018,04,26,06,15,11.70
2018,04,26,06,16,11.70
2018,04,26,06,17,11.60
2018,04,26,06,18,11.50
2018,04,26,06,19,11.50
2018,04,26,06,20,11.50
2018,04,26,06,21,11.40
2018,04,26,06,22,11.40
2018,04,26,06,23,11.40
2018,04,26,06,24,11.30
2018,04,26,06,25,11.30
2018,04,26,06,26,11.30
2018,04,26,06,27,11.20
2018,04,26,06,28,11.20
2018,04,26,06,29,11.20
2018,04,26,06,30,11.10
2018,04,26,06,31,11.10
2018,04,26,06,32,11.10
2018,04,26,06,33,11.10
2018,04,26,06,34,11.10
2018,04,26,06,35,11.00
2018,04,26,06,36,11.00
2018,04,26,06,37,11.10
2018,04,26,06,38,11.10
2018,04,26,06,39,11.10
2018,04,26,06,40,11.10
2018,04,26,06,41,11.20
2018,04,26,06,42,11.20
2018,04,26,06,43,11.30
2018,04,26,06,44,11.30
2018,04,26,06,45,11.40
2018,04,26,06,46,11.50
2018,04,26,06,47,11.50
2018,04,26,06,48,11.60
2018,04,26,06,49,11.70
2018,04,26,06,50,11.80
2018,04,26,06,51,11.80
2018,04,26,06,52,11.90
2018,04,26,06,53,11.90
2018,04,26,06,54,11.90
2018,04,26,06,55,11.90
2018,04,26,06,56,11.90
2018,04,26,06,57,12.00
2018,04,26,06,58,12.00
2018,04,26,06,59,12.10
2018,04,26,07,00,12.10
2018,04,26,07,01,12.10
2018,04,26,07,02,12.20
2018,04,26,07,03,12.20
2018,04,26,07,04,12.20
2018,04,26,07,05,12.20
2018,04,26,07,06,12.20
2018,04,26,07,07,12.30
2018,04,26,07,08,12.30
2018,04,26,07,09,12.30
2018,04,26,07,10,12.30
2018,04,26,07,11,12.30
2018,04,26,07,12,12.30
2018,04,26,07,13,12.30
2018,04,26,07,14,12.30
2018,04,26,07,15,12.30
2018,04,26,07,16,12.40
2018,04,26,07,17,12.40
2018,04,26,07,18,12.50
2018,04,26,07,19,12.50
2018,04,26,07,20,12.60
2018,04,26,07,21,12.60
2018,04,26,07,22,12.70
2018,04,26,07,23,12.70
2018,04,26,07,24,12.70
2018,04,26,07,25,12.80
2018,04,26,07,26,12.80
2018,04,26,07,27,12.80
2018,04,26,07,28,12.80
2018,04,26,07,29,12.90
2018,04,26,07,30,12.90
2018,04,26,07,31,13.00
2018,04,26,07,32,13.10
2018,04,26,07,33,13.10
2018,04,26,07,34,13.20
2018,04,26,07,35,13.20
2018,04,26,07,36,13.30
2018,04,26,07,37,13.30
2018,04,26,07,38,13.30
2018,04,26,07,39,13.40
2018,04,26,07,40,13.40
2018,04,26,07,41,13.50
2018,04,26,07,42,13.50
2018,04,26,07,43,13.60
2018,04,26,07,44,13.60
2018,04,26,07,45,13.60
2018,04,26,07,46,13.70
2018,04,26,07,47,13.70
2018,04,26,07,48,13.70
2018,04,26,07,49,13.70
2018,04,26,07,50,13.70
2018,04,26,07,51,13.70
2018,04,26,07,52,13.70
2018,04,26,07,53,13.70
2018,04,26,07,54,13.80
2018,04,26,07,55,13.80
2018,04,26,07,56,13.80
2018,04,26,07,57,13.80
2018,04,26,07,58,13.90
2018,04,26,07,59,13.90
2018,04,26,08,00,13.90
2018,04,26,08,01,13.90
2018,04,26,08,02,13.90
2018,04,26,08,03,13.90
2018,04,26,08,04,14.00
2018,04,26,08,05,14.00
2018,04,26,08,06,14.10
2018,04,26,08,07,14.10
2018,04,26,08,08,14.10
2018,04,26,08,09,14.10
2018,04,26,08,10,14.10
2018,04,26,08,11,14.10
2018,04,26,08,12,14.10
2018,04,26,08,13,14.20
2018,04,26,08,14,14.20
2018,04,26,08,15,14.20
2018,04,26,08,16,14.20
2018,04,26,08,17,14.20
2018,04,26,08,18,14.20
2018,04,26,08,19,14.30
2018,04,26,08,20,14.30
2018,04,26,08,21,14.30
2018,04,26,08,22,14.30
2018,04,26,08,23,14.30
2018,04,26,08,24,14.30
2018,04,26,08,25,14.30
2018,04,26,08,26,14.30
2018,04,26,08,27,14.30
2018,04,26,08,28,14.30
2018,04,26,08,29,14.30
2018,04,26,08,30,14.30
2018,04,26,08,31,14.30
2018,04,26,08,32,14.30
2018,04,26,08,33,14.30
2018,04,26,08,34,14.30
2018,04,26,08,35,14.30
2018,04,26,08,36,14.30
2018,04,26,08,37,14.30
2018,04,26,08,38,14.30
2018,04,26,08,39,14.30
2018,04,26,08,40,14.30
2018,04,26,08,41,14.30
2018,04,26,08,42,14.30
2018,04,26,08,43,14.30
2018,04,26,08,44,14.30
2018,04,26,08,45,14.30
2018,04,26,08,46,14.30
2018,04,26,08,47,14.30
2018,04,26,08,48,14.30
2018,04,26,08,49,14.30
2018,04,26,08,50,14.30
2018,04,26,08,51,14.30
2018,04,26,08,52,14.30
2018,04,26,08,53,14.30
2018,04,26,08,54,14.30
2018,04,26,08,55,14.30
2018,04,26,08,56,14.30
2018,04,26,08,57,14.30
2018,04,26,08,58,14.30
2018,04,26,08,59,14.30
2018,04,26,09,00,14.30
2018,04,26,09,01,14.40
2018,04,26,09,02,14.40
2018,04,26,09,03,14.40
2018,04,26,09,04,14.40
2018,04,26,09,05,14.40
2018,04,26,09,06,14.40
2018,04,26,09,07,14.40
2018,04,26,09,08,14.40
2018,04,26,09,09,14.40
2018,04,26,09,10,14.40
2018,04,26,09,11,14.40
2018,04,26,09,12,14.40
2018,04,26,09,13,14.40
2018,04,26,09,14,14.40
2018,04,26,09,15,14.40
2018,04,26,09,16,14.40
2018,04,26,09,17,14.40
2018,04,26,09,18,14.50
2018,04,26,09,19,14.50
2018,04,26,09,20,14.50
2018,04,26,09,21,14.50
2018,04,26,09,22,14.50
2018,04,26,09,23,14.60
2018,04,26,09,24,14.60
2018,04,26,09,25,14.60
2018,04,26,09,26,14.60
2018,04,26,09,27,14.60
2018,04,26,09,28,14.70
2018,04,26,09,29,14.70
2018,04,26,09,30,14.70
2018,04,26,09,31,14.70
2018,04,26,09,32,14.80
2018,04,26,09,33,14.80
2018,04,26,09,34,14.80
2018,04,26,09,35,14.90
2018,04,26,09,36,14.90
2018,04,26,09,37,15.00
2018,04,26,09,38,15.00
2018,04,26,09,39,15.10
2018,04,26,09,40,15.10
2018,04,26,09,41,15.20
2018,04,26,09,42,15.20
2018,04,26,09,43,15.30
2018,04,26,09,44,15.30
2018,04,26,09,45,15.30
2018,04,26,09,46,15.40
2018,04,26,09,47,15.40
2018,04,26,09,48,15.40
2018,04,26,09,49,15.50
2018,04,26,09,50,15.50
2018,04,26,09,51,15.50
2018,04,26,09,52,15.60
2018,04,26,09,53,15.60
2018,04,26,09,54,15.60
2018,04,26,09,55,15.70
2018,04,26,09,56,15.70
2018,04,26,09,57,15.70
2018,04,26,09,58,15.80
2018,04,26,09,59,15.90
2018,04,26,10,00,15.90
2018,04,26,10,01,16.00
2018,04,26,10,02,16.00
2018,04,26,10,03,16.10
2018,04,26,10,04,16.10
2018,04,26,10,05,16.20
2018,04,26,10,06,16.20
2018,04,26,10,07,16.30
2018,04,26,10,08,16.40
2018,04,26,10,09,16.40
2018,04,26,10,10,16.50
2018,04,26,10,11,16.60
2018,04,26,10,12,16.60
2018,04,26,10,13,16.70
2018,04,26,10,14,16.70
2018,04,26,10,15,16.80
2018,04,26,10,16,16.80
2018,04,26,10,17,16.90
2018,04,26,10,18,16.90
2018,04,26,10,19,16.90
2018,04,26,10,20,17.00
2018,04,26,10,21,17.00
2018,04,26,10,22,17.10
2018,04,26,10,23,17.10
2018,04,26,10,24,17.10
2018,04,26,10,25,17.10
2018,04,26,10,26,17.20
2018,04,26,10,27,17.20
2018,04,26,10,28,17.20
2018,04,26,10,29,17.30
2018,04,26,10,30,17.30
2018,04,26,10,31,17.40
2018,04,26,10,32,17.50
2018,04,26,10,33,17.50
2018,04,26,10,34,17.60
2018,04,26,10,35,17.60
2018,04,26,10,36,17.60
2018,04,26,10,37,17.70
2018,04,26,10,38,17.70
2018,04,26,10,39,17.70
2018,04,26,10,40,17.80
2018,04,26,10,41,17.80
2018,04,26,10,42,17.90
2018,04,26,10,43,18.00
2018,04,26,10,44,18.00
2018,04,26,10,45,18.10
2018,04,26,10,46,18.10
2018,04,26,10,47,18.10
2018,04,26,10,48,18.10
2018,04,26,10,49,18.10
2018,04,26,10,50,18.10
2018,04,26,10,51,18.10
2018,04,26,10,52,18.10
2018,04,26,10,53,18.20
2018,04,26,10,54,18.20
2018,04,26,10,55,18.30
2018,04,26,10,56,18.30
2018,04,26,10,57,18.40
2018,04,26,10,58,18.40
2018,04,26,10,59,18.50
2018,04,26,11,00,18.60
2018,04,26,11,01,18.70
2018,04,26,11,02,18.70
2018,04,26,11,03,18.70
2018,04,26,11,04,18.70
2018,04,26,11,05,18.70
2018,04,26,11,06,18.80
2018,04,26,11,07,18.80
2018,04,26,11,08,18.90
2018,04,26,11,09,18.90
2018,04,26,11,10,19.00
2018,04,26,11,11,19.00
2018,04,26,11,12,19.10
2018,04,26,11,13,19.10
2018,04,26,11,14,19.10
2018,04,26,11,15,19.10
2018,04,26,11,16,19.10
2018,04,26,11,17,19.20
2018,04,26,11,18,19.10
2018,04,26,11,19,19.00
2018,04,26,11,20,19.00
2018,04,26,11,21,18.90
2018,04,26,11,22,18.90
2018,04,26,11,23,18.90
2018,04,26,11,24,18.90
2018,04,26,11,25,18.90
2018,04,26,11,26,18.90
2018,04,26,11,27,18.90
2018,04,26,11,28,19.00
2018,04,26,11,29,19.10
2018,04,26,11,30,19.10
2018,04,26,11,31,19.10
2018,04,26,11,32,19.10
2018,04,26,11,33,19.10
2018,04,26,11,34,19.10
2018,04,26,11,35,19.20
2018,04,26,11,36,19.20
2018,04,26,11,37,19.20
2018,04,26,11,38,19.30
2018,04,26,11,39,19.30
2018,04,26,11,40,19.40
2018,04,26,11,41,19.40
2018,04,26,11,42,19.50
2018,04,26,11,43,19.60
2018,04,26,11,44,19.60
2018,04,26,11,45,19.60
2018,04,26,11,46,19.70
2018,04,26,11,47,19.70
2018,04,26,11,48,19.70
2018,04,26,11,49,19.70
2018,04,26,11,50,19.70
2018,04,26,11,51,19.70
2018,04,26,11,52,19.70
2018,04,26,11,53,19.80
2018,04,26,11,54,19.80
2018,04,26,11,55,19.80
2018,04,26,11,56,19.90
2018,04,26,11,57,19.80
2018,04,26,11,58,19.80
2018,04,26,11,59,19.70
2018,04,26,12,00,19.70
2018,04,26,12,01,19.60
2018,04,26,12,02,19.60
2018,04,26,12,03,19.50
2018,04,26,12,04,19.40
2018,04,26,12,05,19.40
2018,04,26,12,06,19.40
2018,04,26,12,07,19.50
2018,04,26,12,08,19.70
2018,04,26,12,09,19.80
2018,04,26,12,10,19.80
2018,04,26,12,11,19.80
2018,04,26,12,12,19.80
2018,04,26,12,13,19.80
2018,04,26,12,14,19.80
2018,04,26,12,15,19.80
2018,04,26,12,16,19.70
2018,04,26,12,17,19.60
2018,04,26,12,18,19.60
2018,04,26,12,19,19.60
2018,04,26,12,20,19.60
2018,04,26,12,21,19.60
2018,04,26,12,22,19.70
2018,04,26,12,23,19.80
2018,04,26,12,24,19.90
2018,04,26,12,25,19.90
2018,04,26,12,26,19.90
2018,04,26,12,27,19.90
2018,04,26,12,28,19.80
2018,04,26,12,29,19.70
2018,04,26,12,30,19.60
2018,04,26,12,31,19.40
2018,04,26,12,32,19.30
2018,04,26,12,33,19.20
2018,04,26,12,34,19.10
2018,04,26,12,35,19.20
2018,04,26,12,36,19.30
2018,04,26,12,37,19.40
2018,04,26,12,38,19.50
2018,04,26,12,39,19.60
2018,04,26,12,40,19.70
2018,04,26,12,41,19.80
2018,04,26,12,42,19.90
2018,04,26,12,43,20.00
2018,04,26,12,44,20.10
2018,04,26,12,45,20.10
2018,04,26,12,46,20.20
2018,04,26,12,47,20.20
2018,04,26,12,48,20.20
2018,04,26,12,49,20.20
2018,04,26,12,50,20.30
2018,04,26,12,51,20.30
2018,04,26,12,52,20.40
2018,04,26,12,53,20.50
2018,04,26,12,54,20.50
2018,04,26,12,55,20.60
2018,04,26,12,56,20.60
2018,04,26,12,57,20.60
2018,04,26,12,58,20.60
2018,04,26,12,59,20.60
2018,04,26,13,00,20.70
2018,04,26,13,01,20.80
2018,04,26,13,02,20.90
2018,04,26,13,03,21.00
2018,04,26,13,04,21.00
2018,04,26,13,05,21.10
2018,04,26,13,06,21.20
2018,04,26,13,07,21.20
2018,04,26,13,08,21.20
2018,04,26,13,09,21.20
2018,04,26,13,10,21.20
2018,04,26,13,11,21.30
2018,04,26,13,12,21.40
2018,04,26,13,13,21.40
2018,04,26,13,14,21.40
2018,04,26,13,15,21.40
2018,04,26,13,16,21.40
2018,04,26,13,17,21.40
2018,04,26,13,18,21.40
2018,04,26,13,19,21.40
2018,04,26,13,20,21.50
2018,04,26,13,21,21.50
2018,04,26,13,22,21.60
2018,04,26,13,23,21.70
2018,04,26,13,24,21.70
2018,04,26,13,25,21.80
2018,04,26,13,26,21.80
2018,04,26,13,27,21.80
2018,04,26,13,28,21.80
2018,04,26,13,29,21.80
2018,04,26,13,30,21.90
2018,04,26,13,31,22.00
2018,04,26,13,32,22.00
2018,04,26,13,33,22.10
2018,04,26,13,34,22.10
2018,04,26,13,35,22.00
2018,04,26,13,36,22.00
2018,04,26,13,37,21.90
2018,04,26,13,38,22.00
2018,04,26,13,39,22.10
2018,04,26,13,40,22.10
2018,04,26,13,41,22.20
2018,04,26,13,42,22.20
2018,04,26,13,43,22.20
2018,04,26,13,44,22.20
2018,04,26,13,45,22.20
2018,04,26,13,46,22.20
2018,04,26,13,47,22.30
2018,04,26,13,48,22.20
2018,04,26,13,49,22.20
2018,04,26,13,50,22.20
2018,04,26,13,51,22.20
2018,04,26,13,52,22.20
2018,04,26,13,53,22.20
2018,04,26,13,54,22.20
2018,04,26,13,55,22.20
2018,04,26,13,56,22.30
2018,04,26,13,57,22.30
2018,04,26,13,58,22.30
2018,04,26,13,59,22.30
2018,04,26,14,00,22.30
2018,04,26,14,01,22.40
2018,04,26,14,02,22.40
2018,04,26,14,03,22.40
2018,04,26,14,04,22.40
2018,04,26,14,05,22.50
2018,04,26,14,06,22.50
2018,04,26,14,07,22.60
2018,04,26,14,08,22.50
2018,04,26,14,09,22.50
2018,04,26,14,10,22.60
2018,04,26,14,11,22.60
2018,04,26,14,12,22.60
2018,04,26,14,13,22.70
2018,04,26,14,14,22.80
2018,04,26,14,15,22.90
2018,04,26,14,16,23.00
2018,04,26,14,17,23.00
2018,04,26,14,18,23.10
2018,04,26,14,19,23.20
2018,04,26,14,20,23.30
2018,04,26,14,21,23.30
2018,04,26,14,22,23.20
2018,04,26,14,23,23.20
2018,04,26,14,24,23.20
2018,04,26,14,25,23.20
2018,04,26,14,26,23.20
2018,04,26,14,27,23.20
2018,04,26,14,28,23.30
2018,04,26,14,29,23.30
2018,04,26,14,30,23.40
2018,04,26,14,31,23.40
2018,04,26,14,32,23.40
2018,04,26,14,33,23.40
2018,04,26,14,34,23.30
2018,04,26,14,35,23.20
2018,04,26,14,36,23.10
2018,04,26,14,37,23.10
2018,04,26,14,38,23.00
2018,04,26,14,39,23.00
2018,04,26,14,40,23.10
2018,04,26,14,41,23.00
2018,04,26,14,42,23.00
2018,04,26,14,43,22.90
2018,04,26,14,44,22.90
2018,04,26,14,45,22.80
2018,04,26,14,46,22.80
2018,04,26,14,47,22.90
2018,04,26,14,48,22.90
2018,04,26,14,49,23.00
2018,04,26,14,50,23.00
2018,04,26,14,51,23.10
2018,04,26,14,52,23.10
2018,04,26,14,53,23.10
2018,04,26,14,54,23.20
2018,04,26,14,55,23.20
2018,04,26,14,56,23.20
2018,04,26,14,57,23.20
2018,04,26,14,58,23.20
2018,04,26,14,59,23.20
2018,04,26,15,00,23.20
2018,04,26,15,01,23.20
2018,04,26,15,02,23.20
2018,04,26,15,03,23.20
2018,04,26,15,04,23.10
2018,04,26,15,05,23.00
2018,04,26,15,06,22.90
2018,04,26,15,07,22.70
2018,04,26,15,08,22.60
2018,04,26,15,09,22.40
2018,04,26,15,10,22.30
2018,04,26,15,11,22.30
2018,04,26,15,12,22.20
2018,04,26,15,13,22.00
2018,04,26,15,14,22.00
2018,04,26,15,15,21.90
2018,04,26,15,16,21.80
2018,04,26,15,17,21.90
2018,04,26,15,18,21.90
2018,04,26,15,19,21.90
2018,04,26,15,20,21.90
2018,04,26,15,21,21.90
2018,04,26,15,22,21.90
2018,04,26,15,23,21.80
2018,04,26,15,24,21.80
2018,04,26,15,25,21.80
2018,04,26,15,26,21.80
2018,04,26,15,27,21.70
2018,04,26,15,28,21.70
2018,04,26,15,29,21.70
2018,04,26,15,30,21.70
2018,04,26,15,31,21.70
2018,04,26,15,32,21.70
2018,04,26,15,33,21.80
2018,04,26,15,34,21.80
2018,04,26,15,35,21.80
2018,04,26,15,36,21.90
2018,04,26,15,37,21.90
2018,04,26,15,38,22.00
2018,04,26,15,39,22.10
2018,04,26,15,40,22.10
2018,04,26,15,41,22.20
2018,04,26,15,42,22.30
2018,04,26,15,43,22.40
2018,04,26,15,44,22.40
2018,04,26,15,45,22.50
2018,04,26,15,46,22.60
2018,04,26,15,47,22.70
2018,04,26,15,48,22.80
2018,04,26,15,49,22.90
2018,04,26,15,50,22.90
2018,04,26,15,51,23.00
2018,04,26,15,52,23.00
2018,04,26,15,53,23.10
2018,04,26,15,54,23.10
2018,04,26,15,55,23.10
2018,04,26,15,56,23.10
2018,04,26,15,57,23.10
2018,04,26,15,58,23.00
2018,04,26,15,59,23.00
2018,04,26,16,00,22.90
2018,04,26,16,01,22.80
2018,04,26,16,02,22.80
2018,04,26,16,03,22.80
2018,04,26,16,04,22.70
2018,04,26,16,05,22.70
2018,04,26,16,06,22.70
2018,04,26,16,07,22.60
2018,04,26,16,08,22.50
2018,04,26,16,09,22.50
2018,04,26,16,10,22.40
2018,04,26,16,11,22.40
2018,04,26,16,12,22.40
2018,04,26,16,13,22.50
2018,04,26,16,14,22.50
2018,04,26,16,15,22.40
2018,04,26,16,16,22.40
2018,04,26,16,17,22.40
2018,04,26,16,18,22.40
2018,04,26,16,19,22.40
2018,04,26,16,20,22.40
2018,04,26,16,21,22.40
2018,04,26,16,22,22.40
2018,04,26,16,23,22.40
2018,04,26,16,24,22.40
2018,04,26,16,25,22.40
2018,04,26,16,26,22.50
2018,04,26,16,27,22.50
2018,04,26,16,28,22.50
2018,04,26,16,29,22.50
2018,04,26,16,30,22.60
2018,04,26,16,31,22.60
2018,04,26,16,32,22.60
2018,04,26,16,33,22.60
2018,04,26,16,34,22.60
2018,04,26,16,35,22.60
2018,04,26,16,36,22.70
2018,04,26,16,37,22.70
2018,04,26,16,38,22.80
2018,04,26,16,39,22.90
2018,04,26,16,40,22.90
2018,04,26,16,41,22.90
2018,04,26,16,42,23.00
2018,04,26,16,43,23.00
2018,04,26,16,44,23.10
2018,04,26,16,45,23.10
2018,04,26,16,46,23.20
2018,04,26,16,47,23.30
2018,04,26,16,48,23.30
2018,04,26,16,49,23.30
2018,04,26,16,50,23.40
2018,04,26,16,51,23.40
2018,04,26,16,52,23.40
2018,04,26,16,53,23.50
2018,04,26,16,54,23.50
2018,04,26,16,55,23.50
2018,04,26,16,56,23.50
2018,04,26,16,57,23.40
2018,04,26,16,58,23.40
2018,04,26,16,59,23.40
2018,04,26,17,00,23.40
2018,04,26,17,01,23.30
2018,04,26,17,02,23.30
2018,04,26,17,03,23.20
2018,04,26,17,04,23.20
2018,04,26,17,05,23.20
2018,04,26,17,06,23.20
2018,04,26,17,07,23.20
2018,04,26,17,08,23.20
2018,04,26,17,09,23.30
2018,04,26,17,10,23.30
2018,04,26,17,11,23.30
2018,04,26,17,12,23.20
2018,04,26,17,13,23.20
2018,04,26,17,14,23.20
2018,04,26,17,15,23.20
2018,04,26,17,16,23.20
2018,04,26,17,17,23.20
2018,04,26,17,18,23.20
2018,04,26,17,19,23.20